• Processing (Info)

  • MPEC 2022-N36 : 2022 NJ

    The following Minor Planet Electronic Circular may be linked-to from your own Web pages, but must not otherwise be redistributed electronically.

    A form allowing access to any MPEC is at the bottom of this page.


    Read MPEC 2022-N35 Read MPEC 2022-N37


    M.P.E.C. 2022-N36                                  Issued 2022 July 6, 01:13 UT
    
         The Minor Planet Electronic Circulars contain information on unusual
             minor planets and routine data on comets.  They are published
        on behalf of Division F of the International Astronomical Union by the
              Minor Planet Center, Smithsonian Astrophysical Observatory,
                              Cambridge, MA 02138, U.S.A.
    
                 Prepared using the Tamkin Foundation Computer Network
    
                                  MPC@CFA.HARVARD.EDU
                URL https://www.minorplanetcenter.net/    ISSN 1523-6714
    
                                     2022 NJ                                 
    
    
    Observations:
         K22N00J KC2022 06 20.46676916 56 43.535+09 06 20.73         22.66GVEN036F52
         K22N00J  C2022 06 26.29494416 59 20.189+10 20 17.03         22.19GVEN036F52
         K22N00J  C2022 06 26.30758116 59 20.318+10 20 27.61         22.51GVEN036F52
         K22N00J  C2022 06 26.32031516 59 20.452+10 20 38.25         22.29GVEN036F52
         K22N00J* C2022 07 05.28136317 14 34.693+12 52 43.76         21.50wUEN036F52
         K22N00J  C2022 07 05.29219017 14 36.356+12 53 01.50         21.51wUEN036F52
         K22N00J  C2022 07 05.30297017 14 38.003+12 53 18.82         21.07wUEN036F52
         K22N00J ^C2022 07 05.38012417 14 49.325+12 55 22.34         21.17GVEN036568
         K22N00J ^C2022 07 05.38299417 14 49.759+12 55 26.78         21.30GVEN036568
         K22N00J ^C2022 07 05.38503417 14 50.064+12 55 29.92         21.13GVEN036568
         K22N00J  C2022 07 05.42282017 14 55.956+12 56 23.76         20.91GVEN036F52
         K22N00J  C2022 07 05.42345117 14 56.057+12 56 24.76         20.96GVEN036F52
         K22N00J IC2022 07 05.92935217 16 56.27 +13 08 49.2          20.0 GVEN036L01
         K22N00J bC2022 07 05.93473717 16 57.39 +13 08 58.1          20.5 GVEN036L01
         K22N00J bC2022 07 05.93858317 16 58.10 +13 09 04.5          20.6 GVEN036L01
         K22N00J KC2022 07 05.99279317 17 10.80 +13 10 37.3                XEN036I93
         K22N00J KC2022 07 06.00678517 17 13.51 +13 10 59.7          20.7 GXEN036I93
    
    Observer details:
    568 Mauna Kea.  Observers J. Fairlamb, M. McCormack, S. Moroney, Y.
        Ramanjooloo.  Measurers R. Weryk, Y. Ramanjooloo, R. Wainscoat.  2.24-m
        University of Hawaii reflector + CCD.
    F52 Pan-STARRS 2, Haleakala.  Observers J. Bulger, K. Chambers, T. Dukes, T.
        Lowe, A. Schultz, I. Smith.  Measurers S. Chastel, J. Fairlamb, M. Huber,
        Y. Ramanjooloo, R. Wainscoat, R. Weryk, K. Chambers, T. de Boer, H. Gao,
        C.-C. Lin, E. Magnier.  1.8-m Ritchey-Chretien + CCD.
    I93 St Pardon de Conques.  Observer F. Losse.  0.40-m f/3.7 reflector + CCD.
    L01 Visnjan Observatory, Tican.  Observers K. Korlevic, L. Poropat.  Measurer
        K. Korlevic.  1.0-m f/2.9 reflector + CCD.
    
    Orbital elements:
    2022 NJ                                                  Earth MOID = 0.0004 AU
    Epoch 2022 Aug. 9.0 TT = JDT 2459800.5                  Veres                   
    M   1.09053              (2000.0)            P               Q                  
    n   0.39322654     Peri.  204.64532     +0.75185779     +0.64836466             
    a   1.8451889      Node   114.39346     -0.58101977     +0.73737795             
    e   0.4654542      Incl.    7.55374     -0.31165027     +0.18946512             
    P   2.51           H   25.96          G   0.15           U   7                  
    Residuals in seconds of arc
    220620 F52  0.0   0.0     220705 F52  0.0   0.0     220705 L01  0.6-  0.2-
    220626 F52  0.1-  0.0     220705 568 (0.1-  0.1-)   220705 L01  0.6+  0.1-
    220626 F52  0.1-  0.0     220705 568  0.0   0.0     220705 L01  0.0   0.1+
    220626 F52  0.2+  0.0     220705 568  0.0   0.0     220705 I93  0.6+  0.6+
    220705 F52  0.1+  0.1+    220705 F52  0.0   0.1-    220706 I93  0.6-  0.4+
    220705 F52  0.0   0.2+    220705 F52  0.1+  0.0
    
    Ephemeris:
    2022 NJ                  a,e,i = 1.85, 0.47, 8                   q = 0.9863
    Date    TT    R. A. (2000) Decl.     Delta      r    Elong.  Phase     V
    2022 06 06    16 56 03.5 +05 58 57   0.2130  1.2060   151.4    23.7    24.1
    ...
    2022 06 21    16 56 53.6 +09 13 14   0.1262  1.1210   144.2    32.0    23.1
    ...
    2022 06 29    17 01 39.8 +10 57 44   0.08362 1.0816   139.5    37.6    22.3
    ...
    2022 07 05    17 13 30.5 +12 46 12   0.05265 1.0556   136.6    41.5    21.3
    2022 07 06    17 17 15.7 +13 12 25   0.04756 1.0516   136.2    42.0    21.1
    2022 07 07    17 22 00.0 +13 43 22   0.04249 1.0477   136.0    42.4    20.9
    ...
    2022 07 13    19 12 26.9 +21 58 17   0.01379 1.0265   136.0    43.5    18.4
    ...
    2022 07 21    03 39 34.5 -03 01 29   0.03168 1.0047    68.0   110.3    22.7
    ...
    2022 08 05    04 25 42.4 -07 21 52   0.1065  0.9864    71.8   102.3    24.8
    
    M. P. C. Staff               (C) Copyright 2022 MPC           M.P.E.C. 2022-N36
    


    Read MPEC 2022-N35 Read MPEC 2022-N37


    MPEC number:

    Enter an MPEC number in one of the following forms:

    • 1997-B01 (the full form)
    • J97B01 (the packed version of the full form)
    • B01 (the abbreviated form)